Regional Weather Roundup
Issued by NWS

Home | Current Version | Previous Version | Text Only | Print | Product List | Glossary On
Versions: 1 2 3 4 5 6 7 8 9 10 11 12 13 14 15 16 17 18 19 20 21 22 23 24 25 26 27 28 29 30 31 32 33 34 35 36 37 38 39 40 41 42 43 44 45 46 47 48 49 50
000
ASUS43 KBIS 021510
RWRND

NORTH DAKOTA REGIONAL WEATHER ROUNDUP
NATIONAL WEATHER SERVICE BISMARCK ND
1000 AM CDT TUE JUN 02 2015

NOTE: "FAIR" INDICATES FEW OR NO CLOUDS BELOW 12,000 FEET WITH NO
SIGNIFICANT WEATHER AND/OR OBSTRUCTIONS TO VISIBILITY.


NDZ001>003-009>011-017-021600-
NORTHWEST NORTH DAKOTA

CITY           SKY/WX    TMP DP  RH WIND       PRES   REMARKS
WILLISTON      RAIN      58  55  90 NE13      29.82F FOG
MINOT          CLOUDY    62  58  86 N8        29.79R
MINOT AFB      CLOUDY    63  63 100 NE10      29.79R
$$

NDZ018>021-031>035-040>046-021600-
SOUTHWEST NORTH DAKOTA

CITY           SKY/WX    TMP DP  RH WIND       PRES   REMARKS
BISMARCK       CLOUDY    65  62  90 E7        29.76S
DICKINSON      PTSUNNY   64  57  78 S7        29.79R
GARRISON         N/A     66  59  78 NE5       29.79R
HETTINGER ARPT SUNNY     69  56  62 S5        29.82R
$$

NDZ004>008-012>016-024-026-027-054-021600-
NORTHEAST NORTH DAKOTA

CITY           SKY/WX    TMP DP  RH WIND       PRES   REMARKS
GRAND FORKS    CLOUDY    60  55  83 S12       29.83R
GRND FRKS AFB  CLOUDY    60  55  82 S14       29.82R
DEVILS LAKE    CLOUDY    63  55  77 SW6       29.80S
$$

NDZ022-023-025-028>030-036>039-047>053-021600-
SOUTHEAST NORTH DAKOTA

CITY           SKY/WX    TMP DP  RH WIND       PRES   REMARKS
FARGO          CLOUDY    65  54  67 S21G28    29.85F
JAMESTOWN      CLOUDY    62  57  83 SE16      29.76F
$$




USA.gov is the U.S. government's official web portal to all federal, state and local government web resources and services.